TimeEDT,TemperatureF,Dew PointF,Humidity,Sea Level PressureIn,VisibilityMPH,Wind Direction,Wind SpeedMPH,Gust SpeedMPH,PrecipitationIn,Events,Conditions,WindDirDegrees,DateUTC
12:35 AM,67.6,63.9,88,30.02,10.0,SSW,9.2,-,N/A,,Clear,210,2012-10-14 04:35:00
1:15 AM,67.6,63.7,87,30.02,10.0,SSW,9.2,-,N/A,,Clear,200,2012-10-14 05:15:00
1:35 AM,67.6,63.7,87,30.02,10.0,SSW,9.2,-,N/A,,Scattered Clouds,210,2012-10-14 05:35:00
1:55 AM,67.6,63.5,87,30.02,10.0,SSW,10.4,-,N/A,,Scattered Clouds,210,2012-10-14 05:55:00
2:15 AM,67.6,63.5,87,30.00,10.0,SSW,9.2,-,N/A,,Scattered Clouds,210,2012-10-14 06:15:00
2:35 AM,67.6,63.5,87,30.00,10.0,SSW,10.4,-,N/A,,Clear,200,2012-10-14 06:35:00
2:55 AM,67.6,63.7,87,30.00,10.0,SSW,9.2,-,N/A,,Clear,210,2012-10-14 06:55:00
3:35 AM,67.6,63.9,88,30.00,10.0,SSW,8.1,-,N/A,,Scattered Clouds,200,2012-10-14 07:35:00
3:55 AM,67.6,63.7,87,29.99,10.0,SSW,10.4,-,N/A,,Overcast,200,2012-10-14 07:55:00
4:15 AM,67.1,63.3,88,29.99,10.0,South,8.1,-,N/A,,Mostly Cloudy,180,2012-10-14 08:15:00
4:35 AM,65.3,61.7,88,29.99,10.0,South,9.2,-,N/A,,Scattered Clouds,190,2012-10-14 08:35:00
4:55 AM,66.2,62.2,87,29.99,10.0,South,10.4,-,N/A,,Mostly Cloudy,190,2012-10-14 08:55:00
5:15 AM,65.3,61.2,86,29.99,10.0,SSW,10.4,-,N/A,,Mostly Cloudy,200,2012-10-14 09:15:00
5:35 AM,65.3,61.2,86,29.99,10.0,SSW,11.5,17.3,N/A,,Mostly Cloudy,200,2012-10-14 09:35:00
5:55 AM,65.3,60.8,85,29.99,10.0,South,11.5,-,N/A,,Mostly Cloudy,190,2012-10-14 09:55:00
6:15 AM,65.3,61.0,86,29.99,10.0,SSW,11.5,-,N/A,,Mostly Cloudy,200,2012-10-14 10:15:00
6:35 AM,65.3,60.8,85,29.99,10.0,SSW,10.4,-,N/A,,Mostly Cloudy,200,2012-10-14 10:35:00
6:55 AM,65.3,60.4,84,29.99,10.0,SSW,10.4,-,N/A,,Overcast,200,2012-10-14 10:55:00
7:15 AM,65.3,60.3,84,29.98,10.0,South,9.2,17.3,N/A,,Overcast,190,2012-10-14 11:15:00
7:35 AM,65.3,60.3,84,29.98,10.0,South,10.4,16.1,N/A,,Overcast,180,2012-10-14 11:35:00
7:55 AM,63.1,58.3,84,29.98,10.0,South,11.5,-,N/A,,Mostly Cloudy,180,2012-10-14 11:55:00
8:15 AM,64.9,59.5,83,29.97,10.0,South,11.5,16.1,N/A,,Overcast,190,2012-10-14 12:15:00
8:35 AM,65.1,59.4,82,29.97,10.0,South,11.5,17.3,N/A,,Overcast,190,2012-10-14 12:35:00
8:55 AM,65.3,59.4,81,29.96,10.0,South,12.7,20.7,N/A,,Overcast,190,2012-10-14 12:55:00
9:15 AM,65.3,59.0,80,29.95,10.0,South,17.3,23.0,N/A,,Overcast,190,2012-10-14 13:15:00
9:35 AM,67.3,60.6,79,29.95,10.0,SSW,13.8,26.5,N/A,,Overcast,200,2012-10-14 13:35:00
9:55 AM,67.6,60.4,78,29.94,10.0,South,15.0,28.8,N/A,,Overcast,190,2012-10-14 13:55:00
10:15 AM,67.6,60.1,77,29.93,10.0,SSW,20.7,29.9,N/A,,Overcast,200,2012-10-14 14:15:00
10:35 AM,67.6,59.9,76,29.92,10.0,SSW,16.1,31.1,N/A,,Overcast,200,2012-10-14 14:35:00
10:55 AM,67.6,59.9,76,29.90,10.0,SSW,23.0,32.2,N/A,,Mostly Cloudy,200,2012-10-14 14:55:00
11:15 AM,67.6,59.7,76,29.90,10.0,SSW,21.9,32.2,N/A,,Mostly Cloudy,200,2012-10-14 15:15:00
11:35 AM,69.1,60.8,75,29.88,10.0,SSW,27.6,33.4,N/A,,Overcast,200,2012-10-14 15:35:00
11:55 AM,72.7,63.9,74,29.87,10.0,SSW,20.7,29.9,N/A,,Mostly Cloudy,200,2012-10-14 15:55:00
12:15 PM,72.7,64.0,74,29.86,10.0,SSW,21.9,32.2,N/A,,Overcast,200,2012-10-14 16:15:00
12:35 PM,71.8,63.3,75,29.83,10.0,South,21.9,32.2,N/A,,Overcast,190,2012-10-14 16:35:00
12:55 PM,72.7,63.9,74,29.83,10.0,SSW,18.4,32.2,N/A,,Overcast,210,2012-10-14 16:55:00
1:15 PM,72.7,63.9,74,29.84,10.0,SSW,17.3,33.4,N/A,,Overcast,210,2012-10-14 17:15:00
1:35 PM,72.7,63.5,73,29.83,10.0,SSW,25.3,32.2,N/A,,Overcast,200,2012-10-14 17:35:00
1:55 PM,72.7,63.1,72,29.82,10.0,SSW,23.0,36.8,N/A,,Overcast,210,2012-10-14 17:55:00
2:15 PM,72.7,64.0,74,29.81,10.0,SW,24.2,36.8,N/A,Rain,Light Rain,220,2012-10-14 18:15:00
2:35 PM,72.7,64.8,76,29.80,10.0,SW,21.9,35.7,N/A,,Drizzle,220,2012-10-14 18:35:00
2:55 PM,68.4,63.1,83,29.80,10.0,SSW,13.8,20.7,N/A,Rain,Rain,200,2012-10-14 18:55:00
3:15 PM,69.4,64.0,83,29.78,10.0,SSW,17.3,24.2,N/A,,Overcast,200,2012-10-14 19:15:00
3:35 PM,72.7,65.8,79,29.76,10.0,South,18.4,31.1,N/A,,Overcast,190,2012-10-14 19:35:00
3:55 PM,72.7,65.1,77,29.76,10.0,SSW,24.2,33.4,N/A,,Overcast,200,2012-10-14 19:55:00
4:15 PM,72.7,65.5,78,29.75,10.0,SSW,19.6,28.8,N/A,,Overcast,200,2012-10-14 20:15:00
4:35 PM,72.7,64.8,76,29.74,10.0,SSW,18.4,25.3,N/A,,Overcast,210,2012-10-14 20:35:00
4:55 PM,68.4,64.0,86,29.73,5.0,SW,12.7,28.8,N/A,Rain,Rain,220,2012-10-14 20:55:00
5:15 PM,67.6,65.7,93,29.73,5.0,West,11.5,18.4,N/A,Rain,Light Rain,260,2012-10-14 21:15:00
5:35 PM,67.6,66.0,95,29.73,10.0,SSW,15.0,-,N/A,Rain,Light Rain,210,2012-10-14 21:35:00
5:55 PM,67.6,64.9,91,29.71,10.0,SSW,15.0,19.6,N/A,,Mostly Cloudy,210,2012-10-14 21:55:00
6:15 PM,68.5,64.8,88,29.71,10.0,SSW,17.3,21.9,N/A,,Mostly Cloudy,210,2012-10-14 22:15:00
6:35 PM,67.6,63.9,88,29.71,10.0,SW,12.7,26.5,N/A,,Scattered Clouds,220,2012-10-14 22:35:00
6:55 PM,67.6,64.0,88,29.71,10.0,SSW,17.3,25.3,N/A,,Scattered Clouds,210,2012-10-14 22:55:00
7:15 PM,67.6,63.7,87,29.71,10.0,SW,16.1,23.0,N/A,,Scattered Clouds,220,2012-10-14 23:15:00
7:35 PM,67.6,64.8,90,29.71,10.0,SW,15.0,-,N/A,,Clear,220,2012-10-14 23:35:00
7:55 PM,67.6,65.3,92,29.71,10.0,SSW,13.8,-,N/A,,Scattered Clouds,210,2012-10-14 23:55:00
8:15 PM,67.6,65.3,92,29.71,10.0,SSW,12.7,-,N/A,,Scattered Clouds,210,2012-10-15 00:15:00
8:35 PM,67.6,64.4,89,29.71,10.0,SSW,17.3,23.0,N/A,,Scattered Clouds,210,2012-10-15 00:35:00
8:55 PM,67.6,63.7,87,29.72,10.0,SW,15.0,-,N/A,,Clear,220,2012-10-15 00:55:00
9:15 PM,67.1,64.2,90,29.72,10.0,SW,15.0,19.6,N/A,,Clear,220,2012-10-15 01:15:00
9:35 PM,67.6,63.7,87,29.73,10.0,SW,16.1,-,N/A,,Mostly Cloudy,220,2012-10-15 01:35:00
9:55 PM,67.6,63.7,87,29.74,10.0,SW,13.8,18.4,N/A,,Overcast,230,2012-10-15 01:55:00
10:15 PM,66.4,63.0,89,29.74,10.0,SW,15.0,19.6,N/A,Rain,Light Rain,220,2012-10-15 02:15:00
10:35 PM,65.3,61.9,89,29.75,10.0,SW,15.0,23.0,N/A,Rain,Light Rain,230,2012-10-15 02:35:00
10:55 PM,60.1,58.5,94,29.78,10.0,West,10.4,27.6,N/A,Rain,Rain,270,2012-10-15 02:55:00
11:15 PM,59.0,58.6,99,29.78,7.0,WSW,10.4,-,N/A,Rain,Light Rain,250,2012-10-15 03:15:00
11:35 PM,59.0,59.0,100,29.78,10.0,West,10.4,-,N/A,,Light Drizzle,260,2012-10-15 03:35:00
11:55 PM,59.0,58.3,97,29.78,10.0,West,10.4,17.3,N/A,,Overcast,280,2012-10-15 03:55:00